Location: Andershausen
(51.8462°N, 9.8595°E)
Time: 06:45:09
(UTC+00:00)

Cosmos 1536 Rocket - Pass Details

Date: 18 November 2025
Orbit: 599 x 625 km, 82.5° (Epoch: 11 December)

Event Time Altitude Azimuth Distance (km) Brightness Sun altitude
Rises 17:04:44 0° 351° (N) 2,921 7.0 -15.0°
Reaches altitude 10° 17:07:01 10° 355° (N) 2,007 6.1 -15.3°
Maximum altitude 17:11:25 60° 76° (ENE) 716 3.5 -16.0°
Drops below altitude 10° 17:15:45 10° 157° (SSE) 1,977 6.0 -16.6°
Sets 17:17:59 0° 161° (SSE) 2,874 6.9 -17.0°
